Weather Roundup
Issued by NWS Chicago, IL

Home | Current Version | Previous Version | Graphics & Text | Print | Product List | Glossary On
Versions: 1 2 3 4 5 6 7 8 9 10 11 12 13 14 15 16 17 18 19 20 21 22 23 24 25 26 27 28 29 30 31 32 33 34 35 36 37 38 39 40 41 42 43 44 45 46 47 48 49 50
000
NZUS59 KLOT 280808
HRRLOT

CHICAGO AREA WEATHER ROUNDUP
NATIONAL WEATHER SERVICE CHICAGO/ROMEOVILLE IL
300 AM CDT THU MAY 28 2015

NOTE: "FAIR" INDICATES FEW OR NO CLOUDS BELOW 12,000 FEET WITH NO
SIGNIFICANT WEATHER AND/OR OBSTRUCTIONS TO VISIBILITY.

* THESE STATIONS ARE NOT UNDER NWS QUALITY CONTROL. THEY ALSO MAY NOT
  REPORT WEATHER SUCH AS PRECIPITATION OR FOG.

ILZ005-006-012>014-019>023-280900-
NORTHEAST ILLINOIS

CITY           SKY/WX    TMP DP  RH WIND       PRES   REMARKS
OHARE          PTCLDY    59  55  87 SW3       30.16S
MIDWAY         PTCLDY    63  56  78 S3        30.16S
AURORA         CLEAR     56  52  86 CALM      30.17S
LANSING*       CLEAR     56  54  93 CALM      30.17F
JOLIET*        CLEAR     56  55  98 CALM      30.17S
WAUKEGAN       CLEAR     59  55  87 VRB6      30.15R
DUPAGE AIRPORT CLEAR     56  54  93 CALM      30.17R
WHEELING       CLEAR     55  53  93 CALM      30.18R
KANKAKEE*      CLEAR     56  55  94 CALM      30.17S
MORRIS*        CLEAR     58  55  91 CALM      30.14F
LEWIS AIRPORT* CLEAR     56  54  93 CALM      30.17S
NORTHERLY IS     N/A     63  54  72 S5          N/A
$$

WIZ051-052-058>065-066-070>072-280900-
SOUTHEAST WISCONSIN

CITY           SKY/WX    TMP DP  RH WIND       PRES   REMARKS
MILWAUKEE      PTCLDY    62  55  77 SW6       30.14R
KENOSHA*       CLEAR     58  54  86 SW5       30.15S
RACINE*        CLEAR     61  55  81 W5        30.16R
BURLINGTON     CLEAR     54  54  97 S5        30.14F
WAUKESHA       CLEAR     61  54  77 SW5       30.15S
WEST BEND      CLOUDY    63  55  77 SW5       30.14R
$$

INZ001>003-010>013-019-020-280900-
NORTHWEST INDIANA

CITY           SKY/WX    TMP DP  RH WIND       PRES   REMARKS
GARY*          CLEAR     57  57  99 CALM      30.17F
MICHIGAN CITY* NOT AVBL
RENSSELAER*    NOT AVBL
VALPARAISO     CLEAR     55  52  89 CALM      30.19R
$$

LMZ740>746-280900-
SOUTHERN LAKE MICHIGAN

STATION/POSITION TIME  SKY/WX   TEMP WIND        PRES    VSBY
                                AIR  DIR/SP/G
                 (UTC)          (F)  (DEG/KT/KT) (MB)    (MI)
HARRISON CRIB    0700            64  190/ 14/ 14   N/A
BURNHAM HARBOR   0800            64  200/  3/  5   N/A
CALUMET HARBOR   0730            62  200/  2/  5   N/A
BURNS HARBOR     0700            60  180/  4/  5 1022.0R
MICHIGAN CITY    0700            62  130/  7/  8   N/A
$$

ABBREVIATIONS USED IN REMARKS
   TC - TEMPERATURE IN CELSIUS
  WCI - WIND CHILL INDEX
   HX - HEAT INDEX
  VSB - VISIBILITY
$$



USA.gov is the U.S. government's official web portal to all federal, state and local government web resources and services.